Siemreap, Cambodia

4:52 PM ICT on December 06, 2016 (GMT +0700)
Siem Reap

Weather History for VDSR - June, 2014

Change the Weather History Date:

Thursday, June 5, 2014

  Actual Average Record
Temperature  
Mean Temperature 86 °F -  
Max Temperature 93 °F - - ()
Min Temperature 80 °F - - ()
Cooling Degree Days 22    
Growing Degree Days 36 (Base 50)    
Moisture  
Dew Point 78 °F    
Average Humidity 79    
Maximum Humidity 94    
Minimum Humidity 56    
Precipitation  
Precipitation 0.00 in - - ()
Sea Level Pressure  
Sea Level Pressure 29.61 in    
Wind  
Wind Speed 3 mph ()    
Max Wind Speed 9 mph    
Max Gust Speed -    
Visibility 6.2 miles    
Events Rain    
T = Trace of Precipitation, MM = Missing Value Source: Averaged Metar Reports

Daily Weather History Graph

Daily Weather History Graph

Search for Another Location

Airport or City:

Trip Planner

Search our weather history database for the weather conditions in past years. The results will help you decide how hot, cold, wet, or windy it might be!

Date:

Astronomy

Jun. 05, 2014 Rise Set
Actual Time 5:36 AM ICT 6:29 PM ICT
Civil Twilight 5:13 AM ICT 6:52 PM ICT
Nautical Twilight 4:45 AM ICT 7:20 PM ICT
Astronomical Twilight 4:18 AM ICT 7:48 PM ICT
Moon 11:35 AM ICT (6/5) No Moon Set
Length of Visible Light 13h 39m
Length of Day
12h 52m
Waxing Crescent, 44% of the Moon is Illuminated
Jun 5
Waxing Crescent
Jun 6
First Quarter
Jun 13
Full
Jun 20
Last Quarter
Jun 27
New

Hourly Weather History & Observations

Time (ICT) Temp. Heat Index Dew Point Humidity Pressure Visibility Wind Dir Wind Speed Gust Speed Precip Events Conditions
12:00 AM 80.6 °F 87.1 °F 77.0 °F 89% 29.62 in 6.2 mi Variable 2.3 mph - N/A   Partly Cloudy
12:30 AM 80.6 °F 87.1 °F 77.0 °F 89% 29.62 in 6.2 mi Variable 1.2 mph - N/A   Partly Cloudy
1:00 AM 80.6 °F 88.1 °F 78.8 °F 94% 29.62 in 6.2 mi Variable 1.2 mph - N/A   Partly Cloudy
7:00 AM 82.4 °F 92.4 °F 78.8 °F 89% 29.65 in 6.2 mi SW 3.5 mph - N/A   Partly Cloudy
7:30 AM 82.4 °F 92.4 °F 78.8 °F 89% 29.65 in 6.2 mi WSW 2.3 mph - N/A   Partly Cloudy
8:00 AM 84.2 °F 96.1 °F 78.8 °F 84% 29.68 in 6.2 mi Variable 1.2 mph - N/A   Scattered Clouds
8:30 AM 86.0 °F 96.9 °F 77.0 °F 74% 29.68 in 6.2 mi Variable 3.5 mph - N/A   Scattered Clouds
9:00 AM 86.0 °F 96.9 °F 77.0 °F 74% 29.68 in 6.2 mi Variable 2.3 mph - N/A   Scattered Clouds
9:30 AM 87.8 °F 99.7 °F 77.0 °F 70% 29.68 in 6.2 mi Variable 3.5 mph - N/A   Scattered Clouds
10:00 AM 89.6 °F 102.2 °F 77.0 °F 66% 29.65 in 6.2 mi Variable 3.5 mph - N/A   Scattered Clouds
10:30 AM 89.6 °F 102.2 °F 77.0 °F 66% 29.65 in 6.2 mi Variable 2.3 mph - N/A   Scattered Clouds
11:00 AM 91.4 °F 105.1 °F 77.0 °F 63% 29.62 in 6.2 mi Variable 2.3 mph - N/A   Scattered Clouds
11:30 AM 91.4 °F 102.5 °F 75.2 °F 59% 29.62 in 6.2 mi SW 6.9 mph - N/A   Scattered Clouds
12:00 PM 93.2 °F 105.0 °F 75.2 °F 56% 29.62 in 6.2 mi Variable 4.6 mph - N/A   Scattered Clouds
12:30 PM 93.2 °F 107.2 °F 77.0 °F 59% 29.62 in 6.2 mi SW 5.8 mph - N/A   Partly Cloudy
1:00 PM 84.2 °F 98.3 °F 80.6 °F 89% 29.62 in 6.2 mi SSW 9.2 mph - N/A   Scattered Clouds
1:30 PM 82.4 °F 92.4 °F 78.8 °F 89% 29.59 in 5.6 mi North 8.1 mph - N/A Rain Light Rain
2:00 PM 82.4 °F 92.4 °F 78.8 °F 89% 29.59 in 5.6 mi NNE 5.8 mph - N/A Rain Light Rain
2:30 PM 82.4 °F 90.9 °F 77.0 °F 84% 29.59 in 6.2 mi North 4.6 mph - N/A   Scattered Clouds
3:00 PM 84.2 °F 96.1 °F 78.8 °F 84% 29.56 in 6.2 mi Calm Calm - N/A   Scattered Clouds
3:30 PM 86.0 °F 99.3 °F 78.8 °F 79% 29.56 in 6.2 mi Variable 2.3 mph - N/A   Scattered Clouds
4:00 PM 86.0 °F 99.3 °F 78.8 °F 79% 29.53 in 6.2 mi Calm Calm - N/A   Scattered Clouds
4:30 PM 89.6 °F 102.2 °F 77.0 °F 66% 29.53 in 6.2 mi Variable 2.3 mph - N/A   Scattered Clouds
5:00 PM 89.6 °F 102.2 °F 77.0 °F 66% 29.53 in 6.2 mi NW 3.5 mph - N/A   Scattered Clouds
5:30 PM 87.8 °F 99.7 °F 77.0 °F 70% 29.53 in 6.2 mi Variable 2.3 mph - N/A   Scattered Clouds
6:00 PM 87.8 °F 102.5 °F 78.8 °F 75% 29.56 in 6.2 mi Variable 1.2 mph - N/A   Scattered Clouds
6:30 PM 86.0 °F 101.9 °F 80.6 °F 84% 29.56 in 6.2 mi Variable 2.3 mph - N/A   Scattered Clouds
7:00 PM 86.0 °F 101.9 °F 80.6 °F 84% 29.56 in 6.2 mi Variable 3.5 mph - N/A   Scattered Clouds
7:30 PM 86.0 °F 101.9 °F 80.6 °F 84% 29.56 in 6.2 mi Variable 1.2 mph - N/A   Scattered Clouds
8:00 PM 84.2 °F 98.3 °F 80.6 °F 89% 29.59 in 6.2 mi Variable 1.2 mph - N/A   Scattered Clouds
8:30 PM 84.2 °F 98.3 °F 80.6 °F 89% 29.62 in 6.2 mi Variable 1.2 mph - N/A   Scattered Clouds
9:00 PM 84.2 °F 96.1 °F 78.8 °F 84% 29.62 in 6.2 mi South 4.6 mph - N/A   Scattered Clouds
9:30 PM 84.2 °F 94.1 °F 77.0 °F 79% 29.65 in 6.2 mi WSW 6.9 mph - N/A   Scattered Clouds
10:00 PM 84.2 °F 94.1 °F 77.0 °F 79% 29.65 in 6.2 mi SW 5.8 mph - N/A   Scattered Clouds
10:30 PM 80.6 °F 87.1 °F 77.0 °F 89% 29.65 in 6.2 mi WSW 4.6 mph - N/A   Scattered Clouds
11:00 PM 80.6 °F 87.1 °F 77.0 °F 89% 29.65 in 6.2 mi WSW 4.6 mph - N/A   Scattered Clouds
11:30 PM 80.6 °F 87.1 °F 77.0 °F 89% 29.62 in 6.2 mi SW 4.6 mph - N/A   Scattered Clouds